Regional Weather Roundup
Issued by NWS Northern Indiana

Home | Current Version | Previous Version | Graphics & Text | Print | Product List | Glossary On
Versions: 1 2 3 4 5 6 7 8 9 10 11 12 13 14 15 16 17 18 19 20 21 22 23 24 25 26 27 28 29 30 31 32 33 34 35 36 37 38 39 40 41 42 43 44 45 46 47 48 49 50
000
ASUS43 KIWX 280600
RWRIWX

KIWX WEATHER ROUNDUP
NATIONAL WEATHER SERVICE NORTHERN INDIANA
200 AM EDT SAT MAR 28 2015

NOTE: "FAIR" INDICATES FEW OR NO CLOUDS BELOW 12,000 FEET WITH NO
SIGNIFICANT WEATHER AND/OR OBSTRUCTIONS TO VISIBILITY.

* THESE STATIONS ARE NOT UNDER NWS QUALITY CONTROL. THEY ALSO MAY NOT
  REPORT WEATHER SUCH AS PRECIPITATION OR FOG.

INZ001>027-280700-
NORTHERN INDIANA

CITY           SKY/WX    TMP DP  RH WIND       PRES   REMARKS
SOUTH BEND     FAIR      17  10  74 N7        30.19S WCI   8
6HR MIN TEMP:  16; 6HR MAX TEMP:  23;

GOSHEN         CLEAR     18  10  71 N7        30.17S WCI   9
6HR MIN TEMP:  18; 6HR MAX TEMP:  24;

ANGOLA*        CLEAR     18  10  73 N3        30.14S
FORT WAYNE     CLEAR     20  13  74 N8        30.16R WCI  10
6HR MIN TEMP:  20; 6HR MAX TEMP:  28;


$$
INZ028>050-280700-
CENTRAL INDIANA

CITY           SKY/WX    TMP DP  RH WIND       PRES   REMARKS
LAFAYETTE      CLEAR     19  12  74 N3        30.21S
6HR MIN TEMP:  19; 6HR MAX TEMP:  25;

KOKOMO*          N/A     19  12  73 N7        30.17S WCI  10
6HR MIN TEMP:  19; 6HR MAX TEMP:  27;

MUNCIE*        CLEAR     21  13  71 NW8       30.15S WCI  11
6HR MIN TEMP:  21; 6HR MAX TEMP:  28;

INDIANAPOLIS   CLEAR     21  11  65 N10       30.16R WCI  10
6HR MIN TEMP:  21; 6HR MAX TEMP:  29; 6HR PCP: TRACE;


$$
MIZ043>046-050>051-056>058-064>065-071>073-077>080-280700-
SOUTHWEST LOWER MICHIGAN

CITY           SKY/WX    TMP DP  RH WIND       PRES   REMARKS
BATTLE CREEK   CLEAR     18   4  54 N6        30.17S WCI  10
6HR MIN TEMP:  18; 6HR MAX TEMP:  27;

BENTON HARBOR  CLEAR     18   4  54 VRB3      30.21R
6HR MIN TEMP:  18; 6HR MAX TEMP:  22;

COLDWATER*     CLEAR     19   5  56 N5        30.16R WCI  12
6HR MIN TEMP:  19; 6HR MAX TEMP:  26;

HILLSDALE*     CLEAR     18   7  61 NE7       30.14R WCI   9
HOLLAND        CLEAR     18   1  47 NE9       30.22S WCI   7
6HR MIN TEMP:  18; 6HR MAX TEMP:  24;

GRAND RAPIDS   CLEAR     15   2  56 N7        30.20S WCI   5
6HR MIN TEMP:  15; 6HR MAX TEMP:  26;

KALAMAZOO      CLEAR     18   2  49 N6        30.18S WCI  10
6HR MIN TEMP:  17; 6HR MAX TEMP:  25;

STURGIS*       CLEAR     18   7  62 CALM      30.16S
THREE RIVERS*  FAIR      19   8  61 N3        30.18R
6HR MIN TEMP:  19; 6HR MAX TEMP:  25;


$$
OHZ001>008-015>018-024>025-280700-
NORTHWEST OHIO

CITY           SKY/WX    TMP DP  RH WIND       PRES   REMARKS
DEFIANCE       CLEAR     20  10  65 N6        30.16R WCI  12
6HR MIN TEMP:  19; 6HR MAX TEMP:  27;

FINDLAY        CLEAR     21  13  71 NE10      30.13R WCI  10
6HR MIN TEMP:  21; 6HR MAX TEMP:  26;

TOLEDO EXPRESS CLEAR     19   9  65 N12       30.16R WCI   7
6HR MIN TEMP:  18; 6HR MAX TEMP:  24;

TOLEDO METCALF CLOUDY    20   8  60 N14G20    30.17R WCI   7
6HR MIN TEMP:  19; 6HR MAX TEMP:  25;

LIMA           CLEAR     22  13  68 N5        30.12R WCI  16
6HR MIN TEMP:  22; 6HR MAX TEMP:  28;


$$
AND FOR LAKE MICHIGAN COASTAL AND OPEN LAKE BUOY OBSERVATIONS

STATION/POSITION TEMP    WIND        PRES    VSBY  WAVE
                 AIR SEA DIR/SP/G                  HT/PER
                 (F)     (DEG/KT/KT) (MB)    (MI)  (FT/S)
CALUMET HARBOR    26     360/ 10/ 18 1022.0S
MICHIGAN CITY     24     360/ 19/ 22   N/A
BURNS HARBOR      26      30/ 17/ 19 1023.0S
SAINT JOSEPH      22      20/  4/ 14 1023.0S

$$
&&



USA.gov is the U.S. government's official web portal to all federal, state and local government web resources and services.